| time (UTC) | temp F | wind direction | speed knots | gust knots | rain 1hr in | rain 24hr in | rain mn in | humidity % | barometer mb |
| 20260507093210 | 53 | 247 | 0.0 | 5.2 | 0.00 | 0.00 | 0.00 | 70 | 1019.6 |
| 20260507090209 | 53 | 324 | 0.0 | 6.1 | 0.00 | 0.00 | 0.00 | 71 | 1019.9 |
| 20260507083210 | 54 | 317 | 0.9 | 6.1 | 0.00 | 0.00 | 0.00 | 71 | 1019.7 |
| 20260507080210 | 54 | 290 | 0.0 | 5.2 | 0.00 | 0.00 | 0.00 | 70 | 1019.7 |
| 20260507073210 | 54 | 281 | 0.0 | 6.1 | 0.00 | 0.00 | 0.00 | 71 | 1019.7 |
| 20260507070209 | 54 | 292 | 0.0 | 6.1 | 0.00 | 0.00 | 0.00 | 71 | 1019.7 |
| 20260507063209 | 54 | 323 | 0.0 | 2.6 | 0.00 | 0.00 | 0.00 | 72 | 1019.7 |
| 20260507060208 | 54 | 319 | 1.7 | 5.2 | 0.00 | 0.00 | 0.00 | 72 | 1019.7 |
| 20260507053208 | 55 | 292 | 0.0 | 5.2 | 0.00 | 0.00 | 0.00 | 70 | 1019.7 |
| 20260507050208 | 56 | 319 | 1.7 | 7.8 | 0.00 | 0.00 | 0.00 | 69 | 1019.8 |
| 20260507043207 | 56 | 329 | 3.5 | 8.7 | 0.00 | 0.00 | 0.00 | 68 | 1019.7 |
| 20260507040207 | 57 | 214 | 0.9 | 7.8 | 0.00 | 0.00 | 0.00 | 67 | 1019.6 |
| 20260507033207 | 58 | 315 | 0.0 | 7.0 | 0.00 | 0.00 | 0.00 | 67 | 1019.2 |
| 20260507030207 | 59 | 348 | 0.0 | 5.2 | 0.00 | 0.00 | 0.00 | 66 | 1018.8 |
| 20260507023207 | 60 | 330 | 0.0 | 6.1 | 0.00 | 0.00 | 0.00 | 66 | 1018.6 |
| 20260507020207 | 61 | 311 | 0.0 | 8.7 | 0.00 | 0.00 | 0.00 | 64 | 1018.6 |
| 20260507013207 | 62 | 280 | 0.0 | 9.6 | 0.00 | 0.00 | 0.00 | 62 | 1018.6 |
| 20260507010206 | 64 | 340 | 1.7 | 6.1 | 0.00 | 0.00 | 0.00 | 61 | 1018.7 |
| 20260507003206 | 66 | 245 | 0.0 | 6.1 | 0.00 | 0.00 | 0.00 | 59 | 1018.6 |
| 20260507000207 | 66 | 298 | 0.0 | 7.0 | 0.00 | 0.00 | 0.00 | 60 | 1018.5 |
| 20260506233207 | 66 | 355 | 0.0 | 3.5 | 0.00 | 0.00 | 0.00 | 61 | 1018.4 |
| 20260506230207 | 66 | 360 | 0.0 | 4.3 | 0.00 | 0.00 | 0.00 | 61 | 1018.6 |
| 20260506223206 | 66 | 13 | 0.0 | 4.3 | 0.00 | 0.00 | 0.00 | 63 | 1018.8 |
| 20260506220207 | 65 | 281 | 0.0 | 4.3 | 0.00 | 0.00 | 0.00 | 62 | 1019.0 |
| 20260506213206 | 65 | 136 | 0.0 | 3.5 | 0.00 | 0.00 | 0.00 | 61 | 1019.0 |
| 20260506210207 | 64 | 17 | 0.0 | 3.5 | 0.00 | 0.00 | 0.00 | 64 | 1019.3 |
| 20260506203206 | 62 | 296 | 0.0 | 2.6 | 0.00 | 0.00 | 0.00 | 66 | 1019.4 |
| 20260506200206 | 61 | 351 | 0.0 | 3.5 | 0.00 | 0.00 | 0.00 | 68 | 1019.3 |
| 20260506193205 | 61 | 347 | 0.0 | 3.5 | 0.00 | 0.00 | 0.00 | 69 | 1019.7 |
| 20260506190205 | 60 | 346 | 0.0 | 1.7 | 0.00 | 0.00 | 0.00 | 69 | 1019.6 |
| 20260506183205 | 60 | 346 | 0.0 | 1.7 | 0.00 | 0.00 | 0.00 | 69 | 1019.7 |
| 20260506180205 | 59 | 346 | 0.0 | 3.5 | 0.00 | 0.00 | 0.00 | 70 | 1019.6 |
| 20260506163204 | 58 | 321 | 0.0 | 3.5 | 0.00 | 0.00 | 0.00 | 72 | 1019.2 |
| 20260506160204 | 57 | 322 | 1.7 | 4.3 | 0.00 | 0.00 | 0.00 | 73 | 1019.0 |
| 20260506153204 | 55 | 293 | 0.0 | 4.3 | 0.00 | 0.00 | 0.00 | 77 | 1018.7 |
| 20260506150205 | 55 | 320 | 2.6 | 4.3 | 0.00 | 0.00 | 0.00 | 78 | 1019.1 |
| 20260506143205 | 55 | 345 | 0.0 | 4.3 | 0.00 | 0.00 | 0.00 | 79 | 1019.0 |
| 20260506140204 | 55 | 246 | 0.0 | 4.3 | 0.00 | 0.00 | 0.00 | 80 | 1018.3 |
| 20260506133204 | 55 | 251 | 0.0 | 4.3 | 0.00 | 0.00 | 0.00 | 80 | 1018.2 |
| 20260506130204 | 55 | 268 | 0.0 | 0.9 | 0.00 | 0.00 | 0.00 | 80 | 1017.8 |
| 20260506120203 | 56 | 307 | 0.0 | 4.3 | 0.00 | 0.00 | 0.00 | 79 | 1017.6 |
| 20260506110203 | 56 | 294 | 0.0 | 3.5 | 0.00 | 0.00 | 0.00 | 78 | 1017.1 |
| 20260506103202 | 56 | 281 | 0.0 | 0.9 | 0.00 | 0.00 | 0.00 | 78 | 1016.6 |
| 20260506100232 | 56 | 281 | 0.0 | 1.7 | 0.00 | 0.00 | 0.00 | 78 | 1016.5 |